Overview Statistics Trail Chart Weather Telemetry Raw packets
 

This is the latest recevied weather packets stored in our database for station/object VK4UCZ-13. If no packets are shown the sender has not sent any weather packets the latest 10 day(s).

<< 3 4 5 6 7 >>
Time Temp. Humidity Pressure Rain* Wind** Luminosity Snow
1788165814 17.22° C 85% 1019.6 hPa 0 mm - - -
1788165215 17.78° C 83% 1019.3 hPa 0 mm - - -
1788164615 17.78° C 82% 1019.4 hPa 0 mm - - -
1788164015 17.78° C 81% 1019.2 hPa 0 mm - - -
1788163415 18.33° C 79% 1019.1 hPa 0 mm - - -
1788162815 18.33° C 78% 1019.2 hPa 0 mm - - -
1788162214 18.33° C 77% 1019.1 hPa 0 mm - - -
1788161615 18.33° C 77% 1019 hPa 0 mm - - -
1788161014 18.89° C 77% 1019 hPa 0 mm - - -
1788160415 18.89° C 77% 1018.8 hPa 0 mm - - -
1788159815 18.89° C 76% 1018.8 hPa 0 mm - - -
1788159214 18.89° C 78% 1018.6 hPa 0 mm - - -
1788158614 18.89° C 78% 1018.6 hPa 0 mm - - -
1788158014 19.44° C 76% 1018.5 hPa 0 mm - - -
1788157414 19.44° C 75% 1018.3 hPa 0 mm - - -
1788156814 20° C 73% 1018 hPa 0 mm - - -
1788156214 20° C 71% 1018 hPa 0 mm - - -
1788155614 20.56° C 69% 1017.7 hPa 0 mm - - -
1788155014 20.56° C 67% 1017.8 hPa 0 mm - - -
1788154414 20.56° C 68% 1017.9 hPa 0 mm - - -
1788153814 20.56° C 68% 1017.7 hPa 0 mm - - -
1788153214 21.67° C 67% 1017.8 hPa 0 mm - - -
1788152615 21.67° C 67% 1017.7 hPa 0 mm - - -
1788152368 21.67° C 65% 1017.7 hPa 0 mm - - -
1788152295 21.67° C 65% 1017.7 hPa 0 mm - - -

* Rain latest hour (hover to see other rain measurements)
** Current wind speed in m/s (hover to see current wind gust speed)